PSLKS OJAI-UBBB

Flight info

Callsign PSLKS
Flight time 2h 7m
Altitude 45000
Route LUDAN A412 ASLON L200 SIGBI DCT DELMI DCT MUTAG R652 DAVAS M434 SAV/N0478F430 N72 BATEV T443 MOSUM
Aircraft C700/M-SBDGHM1RWXY/LB2

Departure

Time 2026-05-05 16:33
Airport Queen Alia International Airport (OJAI)

Arrival

Time 2026-05-05 18:41
Airport Heydar Aliyev International Airport (UBBB)
Time Latitude Longitude Altitude Speed Heading
2026-05-05 16:23 31.72750 36.00001 2412 ft 0 kts 170°
2026-05-05 16:29 31.72747 36.00021 2412 ft 5 kts 41°
2026-05-05 16:29 31.72799 36.00045 2412 ft 11 kts 21°
2026-05-05 16:30 31.72854 36.00103 2412 ft 11 kts 92°
2026-05-05 16:30 31.72864 36.00189 2412 ft 12 kts 81°
2026-05-05 16:30 31.72881 36.00287 2412 ft 13 kts 77°
2026-05-05 16:30 31.72899 36.00400 2412 ft 15 kts 81°
2026-05-05 16:31 31.72915 36.00527 2412 ft 17 kts 81°
2026-05-05 16:31 31.72934 36.00670 2412 ft 18 kts 81°
2026-05-05 16:31 31.72978 36.00786 2412 ft 14 kts 28°
2026-05-05 16:31 31.73075 36.00779 2412 ft 15 kts 352°
2026-05-05 16:32 31.73185 36.00759 2411 ft 12 kts 343°
2026-05-05 16:32 31.73217 36.00695 2411 ft 7 kts 261°
2026-05-05 16:32 31.73216 36.00691 2411 ft 4 kts 260°
2026-05-05 16:32 31.73165 36.00337 2411 ft 90 kts 260°
2026-05-05 16:33 31.73016 35.99309 2497 ft 161 kts 260°
2026-05-05 16:33 31.72832 35.97889 3284 ft 189 kts 267°
2026-05-05 16:33 31.72848 35.96272 4350 ft 201 kts 272°
2026-05-05 16:33 31.72894 35.94626 5677 ft 203 kts 272°
2026-05-05 16:34 31.72939 35.92969 7080 ft 204 kts 272°
2026-05-05 16:34 31.72989 35.91288 8293 ft 209 kts 272°
2026-05-05 16:34 31.73390 35.89646 9421 ft 216 kts 305°
2026-05-05 16:34 31.74595 35.88571 10593 ft 226 kts 339°
2026-05-05 16:35 31.76190 35.88493 11699 ft 237 kts
2026-05-05 16:35 31.77851 35.88751 12740 ft 244 kts
2026-05-05 16:35 31.79545 35.89051 13789 ft 248 kts
2026-05-05 16:35 31.81267 35.89371 14805 ft 253 kts
2026-05-05 16:36 31.82941 35.90106 15787 ft 262 kts 25°
2026-05-05 16:36 31.84440 35.91367 16699 ft 269 kts 37°
2026-05-05 16:36 31.85894 35.92779 17595 ft 272 kts 36°
2026-05-05 16:36 31.87381 35.94188 18451 ft 276 kts 35°
2026-05-05 16:37 31.88890 35.95615 19268 ft 280 kts 36°
2026-05-05 16:37 31.90418 35.97071 20047 ft 284 kts 36°
2026-05-05 16:37 31.91966 35.98548 20752 ft 289 kts 36°
2026-05-05 16:37 31.93533 36.00040 21431 ft 292 kts 36°
2026-05-05 16:38 31.95122 36.01553 22106 ft 295 kts 36°
2026-05-05 16:38 31.96727 36.03085 22749 ft 299 kts 36°
2026-05-05 16:38 31.98353 36.04638 23413 ft 303 kts 36°
2026-05-05 16:38 31.99915 36.06326 24056 ft 309 kts 48°
2026-05-05 16:39 32.01103 36.08458 24693 ft 315 kts 63°
2026-05-05 16:39 32.01991 36.10835 25311 ft 319 kts 65°
2026-05-05 16:39 32.02886 36.13237 25891 ft 323 kts 65°
2026-05-05 16:39 32.03801 36.15672 26466 ft 327 kts 65°
2026-05-05 16:40 32.04723 36.18136 27028 ft 330 kts 65°
2026-05-05 16:40 32.05592 36.20663 27525 ft 336 kts 75°
2026-05-05 16:40 32.05784 36.23400 28060 ft 338 kts 94°
2026-05-05 16:40 32.05544 36.26167 28552 ft 342 kts 98°
2026-05-05 16:41 32.05330 36.28971 29043 ft 345 kts 94°
2026-05-05 16:41 32.05317 36.31780 29523 ft 349 kts 89°
2026-05-05 16:41 32.05358 36.34658 29984 ft 353 kts 91°
2026-05-05 16:41 32.05316 36.37562 30436 ft 356 kts 93°
2026-05-05 16:42 32.05234 36.40478 30866 ft 360 kts 92°
2026-05-05 16:42 32.05185 36.43443 31262 ft 366 kts 92°
2026-05-05 16:42 32.05153 36.46543 31294 ft 389 kts 92°
2026-05-05 16:42 32.05107 36.49816 31330 ft 411 kts 92°
2026-05-05 16:43 32.05045 36.53274 31366 ft 433 kts 92°
2026-05-05 16:43 32.05071 36.56909 31383 ft 454 kts 85°
2026-05-05 16:43 32.05662 36.60646 31438 ft 473 kts 73°
2026-05-05 16:43 32.06849 36.64268 32051 ft 475 kts 63°
2026-05-05 16:44 32.08581 36.67580 32548 ft 478 kts 51°
2026-05-05 16:44 32.10636 36.70689 33032 ft 483 kts 49°
2026-05-05 16:44 32.12718 36.73812 33653 ft 484 kts 50°
2026-05-05 16:44 32.14793 36.76946 34306 ft 485 kts 50°
2026-05-05 16:45 32.16865 36.80094 34909 ft 486 kts 50°
2026-05-05 16:45 32.18942 36.83248 35536 ft 486 kts 50°
2026-05-05 16:45 32.21015 36.86385 36131 ft 485 kts 50°
2026-05-05 16:45 32.23096 36.89537 36694 ft 486 kts 50°
2026-05-05 16:46 32.25167 36.92687 37261 ft 484 kts 50°
2026-05-05 16:46 32.27220 36.95814 37891 ft 479 kts 50°
2026-05-05 16:46 32.29258 36.98912 38310 ft 478 kts 50°
2026-05-05 16:46 32.31303 37.02020 38653 ft 479 kts 50°
2026-05-05 16:47 32.33345 37.05131 39011 ft 479 kts 50°
2026-05-05 16:47 32.35386 37.08248 39348 ft 479 kts 50°
2026-05-05 16:47 32.37428 37.11366 39684 ft 479 kts 50°
2026-05-05 16:47 32.39470 37.14480 40000 ft 479 kts 50°
2026-05-05 16:48 32.41510 37.17601 40310 ft 479 kts 50°
2026-05-05 16:48 32.43549 37.20724 40631 ft 479 kts 50°
2026-05-05 16:48 32.45583 37.23838 40929 ft 479 kts 51°
2026-05-05 16:48 32.47620 37.26958 41229 ft 479 kts 51°
2026-05-05 16:49 32.49657 37.30077 41526 ft 478 kts 51°
2026-05-05 16:49 32.51692 37.33199 41795 ft 479 kts 51°
2026-05-05 16:49 32.53726 37.36321 42080 ft 478 kts 51°
2026-05-05 16:49 32.55758 37.39443 42355 ft 478 kts 51°
2026-05-05 16:50 32.57784 37.42558 42622 ft 478 kts 51°
2026-05-05 16:50 32.59788 37.45640 42849 ft 478 kts 51°
2026-05-05 16:50 32.61820 37.48769 43108 ft 477 kts 51°
2026-05-05 16:50 32.63844 37.51891 43346 ft 477 kts 51°
2026-05-05 16:51 32.65864 37.55006 43578 ft 477 kts 51°
2026-05-05 16:51 32.67887 37.58129 43805 ft 477 kts 51°
2026-05-05 16:51 32.69908 37.61252 44020 ft 477 kts 51°
2026-05-05 16:51 32.71927 37.64374 44236 ft 477 kts 51°
2026-05-05 16:52 32.73856 37.67578 44445 ft 477 kts 59°
2026-05-05 16:52 32.75332 37.71099 44656 ft 476 kts 69°
2026-05-05 16:52 32.76439 37.74804 44850 ft 476 kts 71°
2026-05-05 16:52 32.77519 37.78521 44992 ft 477 kts 71°
2026-05-05 16:53 32.79730 37.86041 44993 ft 486 kts 71°
2026-05-05 16:53 32.81913 37.93722 45000 ft 495 kts 72°
2026-05-05 16:54 32.84117 38.01537 44997 ft 503 kts 72°
2026-05-05 16:54 32.86372 38.09482 45000 ft 511 kts 72°
2026-05-05 16:55 32.88681 38.17544 44996 ft 518 kts 72°
2026-05-05 16:55 32.91006 38.25726 44996 ft 525 kts 72°
2026-05-05 16:56 32.93344 38.33958 45000 ft 525 kts 72°
2026-05-05 16:56 32.95667 38.42171 44992 ft 522 kts 72°
2026-05-05 16:57 32.97973 38.50343 44989 ft 519 kts 72°
2026-05-05 16:57 33.00247 38.58426 44986 ft 518 kts 72°
2026-05-05 16:58 33.02161 38.65248 44986 ft 519 kts 72°
2026-05-05 16:58 33.04452 38.73429 44991 ft 521 kts 72°
2026-05-05 16:59 33.06749 38.81649 44989 ft 524 kts 72°
2026-05-05 16:59 33.09018 38.89851 44986 ft 524 kts 75°
2026-05-05 17:00 33.10016 38.98389 44987 ft 518 kts 92°
2026-05-05 17:00 33.10011 39.06971 44987 ft 517 kts 92°
2026-05-05 17:01 33.10022 39.15530 44984 ft 515 kts 92°
2026-05-05 17:01 33.10014 39.24063 44982 ft 514 kts 92°
2026-05-05 17:02 33.10007 39.32582 44982 ft 514 kts 92°
2026-05-05 17:02 33.09991 39.41130 44984 ft 516 kts 92°
2026-05-05 17:03 33.09971 39.49700 44976 ft 518 kts 92°
2026-05-05 17:03 33.09944 39.58304 44979 ft 519 kts 92°
2026-05-05 17:04 33.09911 39.66932 44981 ft 520 kts 92°
2026-05-05 17:04 33.09872 39.75554 44977 ft 519 kts 92°
2026-05-05 17:05 33.09828 39.84140 44974 ft 517 kts 92°
2026-05-05 17:05 33.09778 39.92640 44972 ft 515 kts 92°
2026-05-05 17:06 33.09720 40.01170 44969 ft 513 kts 92°
2026-05-05 17:06 33.09656 40.09690 44969 ft 515 kts 93°
2026-05-05 17:07 33.09586 40.18249 44972 ft 518 kts 93°
2026-05-05 17:07 33.09510 40.26865 44977 ft 521 kts 93°
2026-05-05 17:08 33.09427 40.35512 44980 ft 521 kts 93°
2026-05-05 17:08 33.09339 40.44136 44977 ft 519 kts 93°
2026-05-05 17:09 33.09245 40.52731 44974 ft 517 kts 93°
2026-05-05 17:09 33.09146 40.61292 44971 ft 515 kts 93°
2026-05-05 17:10 33.09040 40.69828 44957 ft 516 kts 93°
2026-05-05 17:10 33.08929 40.78408 44960 ft 518 kts 93°
2026-05-05 17:11 33.08812 40.86996 44963 ft 519 kts 93°
2026-05-05 17:11 33.08688 40.95619 44961 ft 521 kts 93°
2026-05-05 17:12 33.08559 41.04224 44945 ft 522 kts 94°
2026-05-05 17:12 33.08422 41.12936 44946 ft 522 kts 94°
2026-05-05 17:13 33.08204 41.21521 44920 ft 520 kts 96°
2026-05-05 17:13 33.07872 41.30121 44918 ft 518 kts 95°
2026-05-05 17:14 33.07526 41.38692 44915 ft 516 kts 96°
2026-05-05 17:14 33.07176 41.47231 44913 ft 517 kts 95°
2026-05-05 17:15 33.06822 41.55805 44916 ft 519 kts 96°
2026-05-05 17:15 33.06457 41.64412 44916 ft 521 kts 96°
2026-05-05 17:16 33.06087 41.73055 44914 ft 523 kts 96°
2026-05-05 17:16 33.05709 41.81717 44916 ft 523 kts 96°
2026-05-05 17:17 33.05327 41.90354 44914 ft 521 kts 96°
2026-05-05 17:17 33.04940 41.98952 44911 ft 519 kts 96°
2026-05-05 17:18 33.04548 42.07539 44907 ft 518 kts 96°
2026-05-05 17:18 33.04150 42.16119 44908 ft 519 kts 96°
2026-05-05 17:19 33.03745 42.24721 44911 ft 521 kts 96°
2026-05-05 17:19 33.03936 42.33329 44908 ft 528 kts 82°
2026-05-05 17:20 33.06094 42.41766 44908 ft 532 kts 69°
2026-05-05 17:20 33.08789 42.49984 44907 ft 532 kts 70°
2026-05-05 17:21 33.11443 42.58143 44904 ft 530 kts 70°
2026-05-05 17:22 33.15453 42.70477 44901 ft 529 kts 70°
2026-05-05 17:22 33.18102 42.78653 44901 ft 527 kts 70°
2026-05-05 17:23 33.20740 42.86818 44899 ft 526 kts 70°
2026-05-05 17:23 33.23373 42.94990 44893 ft 527 kts 70°
2026-05-05 17:24 33.25985 43.03119 44897 ft 529 kts 70°
2026-05-05 17:24 33.28755 43.11296 44890 ft 532 kts 63°
2026-05-05 17:25 33.33042 43.18479 44893 ft 533 kts 45°
2026-05-05 17:25 33.38853 43.23912 44894 ft 529 kts 27°
2026-05-05 17:26 33.45611 43.27159 44901 ft 521 kts 13°
2026-05-05 17:26 33.52567 43.29590 44894 ft 520 kts 13°
2026-05-05 17:27 33.59503 43.32036 44891 ft 519 kts 13°
2026-05-05 17:27 33.66421 43.34470 44890 ft 518 kts 13°
2026-05-05 17:28 33.73330 43.36911 44888 ft 517 kts 13°
2026-05-05 17:28 33.80232 43.39349 44887 ft 517 kts 13°
2026-05-05 17:29 33.87152 43.41800 44890 ft 519 kts 13°
2026-05-05 17:29 33.94092 43.44262 44894 ft 522 kts 13°
2026-05-05 17:30 34.01070 43.46741 44900 ft 524 kts 13°
2026-05-05 17:30 34.08015 43.49213 44895 ft 523 kts 13°
2026-05-05 17:31 34.15034 43.51716 44892 ft 521 kts 13°
2026-05-05 17:31 34.21926 43.54177 44890 ft 520 kts 13°
2026-05-05 17:32 34.28866 43.56660 44887 ft 518 kts 13°
2026-05-05 17:32 34.35762 43.59131 44885 ft 517 kts 13°
2026-05-05 17:33 34.42662 43.61683 44880 ft 521 kts 18°
2026-05-05 17:33 34.49026 43.65975 44891 ft 529 kts 36°
2026-05-05 17:34 34.54168 43.72358 44899 ft 533 kts 54°
2026-05-05 17:34 34.58137 43.79961 44897 ft 534 kts 58°
2026-05-05 17:35 34.62057 43.87601 44897 ft 533 kts 58°
2026-05-05 17:35 34.65955 43.95234 44896 ft 531 kts 58°
2026-05-05 17:36 34.69812 44.02796 44892 ft 529 kts 58°
2026-05-05 17:36 34.73670 44.10379 44890 ft 527 kts 58°
2026-05-05 17:37 34.77520 44.17962 44888 ft 526 kts 58°
2026-05-05 17:37 34.81358 44.25537 44888 ft 526 kts 58°
2026-05-05 17:38 34.85192 44.33123 44921 ft 527 kts 58°
2026-05-05 17:38 34.89038 44.40745 44924 ft 529 kts 58°
2026-05-05 17:39 34.92890 44.48398 44927 ft 530 kts 58°
2026-05-05 17:39 34.96737 44.56058 44927 ft 529 kts 58°
2026-05-05 17:40 35.00563 44.63693 44925 ft 527 kts 59°
2026-05-05 17:40 35.04374 44.71314 44927 ft 525 kts 59°
2026-05-05 17:41 35.08167 44.78916 44925 ft 523 kts 59°
2026-05-05 17:41 35.11943 44.86501 44929 ft 522 kts 59°
2026-05-05 17:42 35.15693 44.94049 44931 ft 524 kts 59°
2026-05-05 17:42 35.19471 45.01671 44941 ft 525 kts 59°
2026-05-05 17:43 35.23261 45.09333 44945 ft 527 kts 59°
2026-05-05 17:43 35.26814 45.17179 44933 ft 527 kts 69°
2026-05-05 17:44 35.28595 45.25797 44948 ft 520 kts 86°
2026-05-05 17:44 35.28566 45.34589 44951 ft 515 kts 95°
2026-05-05 17:45 35.28282 45.43332 44950 ft 514 kts 95°
2026-05-05 17:45 35.27989 45.52075 44945 ft 516 kts 95°
2026-05-05 17:46 35.27689 45.60867 44941 ft 518 kts 95°
2026-05-05 17:46 35.27434 45.68197 44939 ft 519 kts 95°
2026-05-05 17:47 35.27120 45.77030 44945 ft 519 kts 95°
2026-05-05 17:47 35.26801 45.85849 44945 ft 518 kts 95°
2026-05-05 17:48 35.26476 45.94634 44948 ft 516 kts 95°
2026-05-05 17:48 35.26147 46.03384 44947 ft 514 kts 95°
2026-05-05 17:49 35.25811 46.12120 44946 ft 513 kts 95°
2026-05-05 17:49 35.26277 46.20824 44960 ft 517 kts 79°
2026-05-05 17:50 35.28789 46.29069 44974 ft 521 kts 61°
2026-05-05 17:50 35.33132 46.36075 44974 ft 523 kts 43°
2026-05-05 17:51 35.38926 46.41437 44970 ft 523 kts 32°
2026-05-05 17:51 35.45020 46.46396 44975 ft 522 kts 32°
2026-05-05 17:52 35.51016 46.51296 44973 ft 520 kts 32°
2026-05-05 17:52 35.57042 46.56220 44970 ft 519 kts 32°
2026-05-05 17:53 35.63039 46.61138 44969 ft 518 kts 32°
2026-05-05 17:53 35.69024 46.66048 44968 ft 517 kts 32°
2026-05-05 17:54 35.75005 46.70968 44969 ft 518 kts 32°
2026-05-05 17:54 35.81000 46.75906 44971 ft 519 kts 32°
2026-05-05 17:55 35.87006 46.80864 44972 ft 520 kts 32°
2026-05-05 17:55 35.93024 46.85840 44968 ft 521 kts 32°
2026-05-05 17:56 35.99053 46.90835 44971 ft 522 kts 32°
2026-05-05 17:56 36.05093 46.95848 44968 ft 523 kts 33°
2026-05-05 17:57 36.11070 47.00819 44967 ft 520 kts 33°
2026-05-05 17:57 36.17065 47.05813 44950 ft 518 kts 33°
2026-05-05 17:58 36.23028 47.10791 44948 ft 516 kts 33°
2026-05-05 17:58 36.28977 47.15765 44963 ft 516 kts 33°
2026-05-05 17:59 36.34941 47.20762 44965 ft 518 kts 33°
2026-05-05 17:59 36.40934 47.25792 44960 ft 521 kts 33°
2026-05-05 18:00 36.46950 47.30852 44967 ft 523 kts 33°
2026-05-05 18:00 36.52959 47.35915 44958 ft 522 kts 33°
2026-05-05 18:01 36.58955 47.40977 44956 ft 520 kts 33°
2026-05-05 18:01 36.64930 47.46030 44944 ft 518 kts 33°
2026-05-05 18:02 36.70881 47.51074 44950 ft 517 kts 33°
2026-05-05 18:02 36.76815 47.56112 44941 ft 516 kts 33°
2026-05-05 18:03 36.82751 47.61161 44950 ft 517 kts 33°
2026-05-05 18:03 36.88709 47.66240 44951 ft 520 kts 33°
2026-05-05 18:04 36.94692 47.71348 44958 ft 522 kts 33°
2026-05-05 18:04 37.00650 47.76446 44962 ft 522 kts 33°
2026-05-05 18:05 37.06634 47.81577 44958 ft 520 kts 33°
2026-05-05 18:05 37.12587 47.86689 44958 ft 517 kts 33°
2026-05-05 18:06 37.18509 47.91786 44956 ft 515 kts 33°
2026-05-05 18:06 37.24415 47.96877 44959 ft 516 kts 33°
2026-05-05 18:07 37.30345 48.02002 44962 ft 519 kts 33°
2026-05-05 18:07 37.36304 48.07159 44966 ft 521 kts 33°
2026-05-05 18:08 37.42270 48.12335 44956 ft 519 kts 33°
2026-05-05 18:08 37.48192 48.17480 44944 ft 515 kts 33°
2026-05-05 18:09 37.54066 48.22595 44949 ft 512 kts 33°
2026-05-05 18:09 37.59934 48.27714 44946 ft 514 kts 33°
2026-05-05 18:10 37.65825 48.32863 44945 ft 516 kts 34°
2026-05-05 18:10 37.71702 48.38012 44961 ft 519 kts 34°
2026-05-05 18:11 37.77635 48.43219 44960 ft 519 kts 34°
2026-05-05 18:11 37.83550 48.48419 44964 ft 517 kts 34°
2026-05-05 18:12 37.89436 48.53606 44959 ft 514 kts 34°
2026-05-05 18:12 37.95291 48.58775 44958 ft 513 kts 34°
2026-05-05 18:13 38.01141 48.63949 44961 ft 513 kts 34°
2026-05-05 18:13 38.07007 48.69149 44965 ft 515 kts 34°
2026-05-05 18:14 38.12897 48.74380 44967 ft 517 kts 34°
2026-05-05 18:14 38.18797 48.79631 44969 ft 519 kts 34°
2026-05-05 18:15 38.24701 48.84895 44970 ft 517 kts 34°
2026-05-05 18:15 38.30615 48.90178 44265 ft 524 kts 34°
2026-05-05 18:15 38.33596 48.92847 43589 ft 522 kts 34°
2026-05-05 18:16 38.36563 48.95505 42886 ft 518 kts 34°
2026-05-05 18:16 38.39482 48.98123 42209 ft 510 kts 34°
2026-05-05 18:16 38.42365 49.00711 41540 ft 503 kts 34°
2026-05-05 18:16 38.45208 49.03265 40880 ft 497 kts 34°
2026-05-05 18:17 38.48018 49.05792 40219 ft 492 kts 34°
2026-05-05 18:17 38.50808 49.08303 39572 ft 490 kts 34°
2026-05-05 18:17 38.53589 49.10809 38917 ft 489 kts 34°
2026-05-05 18:17 38.56376 49.13323 38267 ft 492 kts 34°
2026-05-05 18:18 38.59184 49.15858 37613 ft 497 kts 34°
2026-05-05 18:18 38.61987 49.18393 36952 ft 501 kts 34°
2026-05-05 18:18 38.64839 49.20973 36285 ft 503 kts 34°
2026-05-05 18:18 38.67697 49.23558 35611 ft 503 kts 34°
2026-05-05 18:19 38.70563 49.26156 34938 ft 507 kts 34°
2026-05-05 18:19 38.73452 49.28779 34264 ft 511 kts 35°
2026-05-05 18:19 38.76355 49.31416 33582 ft 514 kts 35°
2026-05-05 18:19 38.79274 49.34070 32899 ft 515 kts 35°
2026-05-05 18:20 38.82195 49.36727 32211 ft 514 kts 35°
2026-05-05 18:20 38.85240 49.39070 31507 ft 506 kts 26°
2026-05-05 18:20 38.88416 49.40833 30832 ft 489 kts 20°
2026-05-05 18:20 38.91564 49.42278 30163 ft 473 kts 17°
2026-05-05 18:21 38.94645 49.43589 29498 ft 458 kts 18°
2026-05-05 18:21 38.97606 49.44967 28831 ft 447 kts 20°
2026-05-05 18:21 39.00473 49.46387 28177 ft 436 kts 20°
2026-05-05 18:21 39.03291 49.47727 27527 ft 427 kts 18°
2026-05-05 18:22 39.06064 49.48989 26901 ft 418 kts 18°
2026-05-05 18:22 39.08747 49.50236 26529 ft 404 kts 19°
2026-05-05 18:22 39.11348 49.51477 26144 ft 394 kts 19°
2026-05-05 18:22 39.13904 49.52688 25763 ft 390 kts 19°
2026-05-05 18:23 39.16449 49.53880 25393 ft 389 kts 18°
2026-05-05 18:23 39.18996 49.55076 25022 ft 391 kts 19°
2026-05-05 18:23 39.21562 49.56288 24649 ft 394 kts 19°
2026-05-05 18:23 39.24142 49.57509 24275 ft 395 kts 19°
2026-05-05 18:24 39.26716 49.58726 24018 ft 391 kts 19°
2026-05-05 18:24 39.29247 49.59921 23536 ft 394 kts 19°
2026-05-05 18:24 39.31822 49.61140 23026 ft 392 kts 19°
2026-05-05 18:24 39.34369 49.62348 22503 ft 387 kts 19°
2026-05-05 18:25 39.36871 49.63535 21993 ft 379 kts 18°
2026-05-05 18:25 39.37704 49.63930 21823 ft 377 kts 18°
2026-05-05 18:25 39.41740 49.65844 21004 ft 367 kts 18°
2026-05-05 18:25 39.44127 49.66978 20520 ft 364 kts 18°
2026-05-05 18:26 39.46502 49.68108 20037 ft 363 kts 18°
2026-05-05 18:26 39.48863 49.69231 19557 ft 361 kts 18°
2026-05-05 18:26 39.51219 49.70352 19071 ft 360 kts 18°
2026-05-05 18:26 39.53563 49.71468 18593 ft 358 kts 18°
2026-05-05 18:27 39.55890 49.72579 18114 ft 355 kts 18°
2026-05-05 18:27 39.58194 49.73678 17642 ft 351 kts 18°
2026-05-05 18:27 39.60473 49.74767 17179 ft 347 kts 18°
2026-05-05 18:27 39.62730 49.75844 16729 ft 343 kts 18°
2026-05-05 18:28 39.67166 49.77966 15837 ft 336 kts 18°
2026-05-05 18:28 39.69340 49.79008 15391 ft 332 kts 18°
2026-05-05 18:28 39.71497 49.80042 14951 ft 328 kts 18°
2026-05-05 18:29 39.73627 49.81064 14516 ft 324 kts 19°
2026-05-05 18:29 39.75735 49.82075 14086 ft 321 kts 18°
2026-05-05 18:29 39.77824 49.83075 13662 ft 319 kts 18°
2026-05-05 18:29 39.79895 49.84070 13238 ft 316 kts 19°
2026-05-05 18:30 39.81946 49.85057 12819 ft 313 kts 19°
2026-05-05 18:30 39.83976 49.86034 12399 ft 309 kts 19°
2026-05-05 18:30 39.85986 49.86999 11985 ft 307 kts 19°
2026-05-05 18:30 39.87979 49.87962 11588 ft 304 kts 19°
2026-05-05 18:31 39.89961 49.88915 11182 ft 302 kts 19°
2026-05-05 18:31 39.91928 49.89862 10783 ft 301 kts 19°
2026-05-05 18:31 39.93887 49.90809 10387 ft 300 kts 20°
2026-05-05 18:31 39.95848 49.91757 9985 ft 300 kts 20°
2026-05-05 18:32 39.97806 49.92701 9581 ft 300 kts 20°
2026-05-05 18:32 39.99763 49.93648 9188 ft 300 kts 20°
2026-05-05 18:32 40.01718 49.94594 8788 ft 299 kts 21°
2026-05-05 18:32 40.03636 49.95522 8397 ft 297 kts 21°
2026-05-05 18:33 40.05566 49.96454 8003 ft 295 kts 21°
2026-05-05 18:33 40.07476 49.97379 7613 ft 291 kts 21°
2026-05-05 18:33 40.09395 49.98311 7226 ft 289 kts 21°
2026-05-05 18:33 40.11272 49.99222 6839 ft 287 kts 21°
2026-05-05 18:34 40.13113 50.00117 6468 ft 285 kts 20°
2026-05-05 18:34 40.14965 50.01015 6112 ft 283 kts 20°
2026-05-05 18:34 40.16208 50.01617 5861 ft 279 kts 20°
2026-05-05 18:34 40.18004 50.02492 5494 ft 273 kts 20°
2026-05-05 18:35 40.19769 50.03352 5136 ft 268 kts 20°
2026-05-05 18:35 40.21497 50.04192 4782 ft 262 kts 20°
2026-05-05 18:35 40.23188 50.05015 4427 ft 255 kts 20°
2026-05-05 18:35 40.24805 50.05803 4089 ft 242 kts 20°
2026-05-05 18:36 40.26339 50.06552 3777 ft 230 kts 20°
2026-05-05 18:36 40.27812 50.07271 3478 ft 222 kts 19°
2026-05-05 18:36 40.29237 50.07966 3189 ft 215 kts 19°
2026-05-05 18:36 40.30656 50.08415 2903 ft 207 kts
2026-05-05 18:37 40.32049 50.08274 2727 ft 192 kts 351°
2026-05-05 18:37 40.33279 50.07984 2459 ft 173 kts 348°
2026-05-05 18:37 40.34435 50.07644 2227 ft 172 kts 347°
2026-05-05 18:37 40.35627 50.07269 2006 ft 180 kts 346°
2026-05-05 18:38 40.36848 50.06884 1813 ft 171 kts 347°
2026-05-05 18:38 40.37944 50.06546 1565 ft 155 kts 346°
2026-05-05 18:38 40.38927 50.06238 1335 ft 136 kts 346°
2026-05-05 18:38 40.39795 50.05964 1158 ft 123 kts 346°
2026-05-05 18:39 40.40604 50.05709 1011 ft 118 kts 346°
2026-05-05 18:39 40.41403 50.05458 866 ft 118 kts 346°
2026-05-05 18:39 40.42206 50.05206 713 ft 119 kts 346°
2026-05-05 18:39 40.43015 50.04953 561 ft 120 kts 346°
2026-05-05 18:40 40.43826 50.04697 392 ft 120 kts 346°
2026-05-05 18:40 40.44636 50.04443 234 ft 119 kts 346°
2026-05-05 18:40 40.45434 50.04191 71 ft 116 kts 346°
2026-05-05 18:40 40.46146 50.03960 1 ft 89 kts 346°
2026-05-05 18:41 40.46563 50.03829 -6 ft 42 kts 346°
2026-05-05 18:41 40.46753 50.03777 -7 ft 16 kts
2026-05-05 18:41 40.46797 50.03848 -6 ft 10 kts 56°
2026-05-05 18:41 40.46824 50.03937 -5 ft 12 kts 73°
2026-05-05 18:42 40.46846 50.04052 -5 ft 10 kts 76°
2026-05-05 18:42 40.46865 50.04153 -5 ft 13 kts 77°
2026-05-05 18:42 40.46882 50.04250 -5 ft 12 kts 76°
2026-05-05 18:42 40.46903 50.04371 -6 ft 15 kts 80°
2026-05-05 18:43 40.46909 50.04520 -6 ft 18 kts 87°
2026-05-05 18:43 40.46914 50.04651 -6 ft 14 kts 88°
2026-05-05 18:43 40.46917 50.04795 -6 ft 18 kts 88°
2026-05-05 18:43 40.46889 50.04915 -7 ft 14 kts 163°
2026-05-05 18:44 40.46826 50.04916 -7 ft 11 kts 179°
2026-05-05 18:44 40.46749 50.04879 -6 ft 13 kts 202°
2026-05-05 18:44 40.46687 50.04916 -7 ft 9 kts 134°
2026-05-05 18:44 40.46650 50.05000 -7 ft 13 kts 115°
2026-05-05 18:45 40.46628 50.05097 -8 ft 0 kts 99°